Other Public Products
Issued by NWS Charleston, SC

Current Version | Previous Version | Graphics & Text | Print | Product List | Glossary On
Versions: 1 2 3 4 5 6 7 8 9 10 11 12 13 14 15 16 17 18 19 20 21 22 23 24 25 26 27 28 29 30 31 32 33 34 35 36 37 38 39 40 41 42 43 44 45 46 47 48 49 50
000
FPUS82 KCHS 220712
OPUCHS

TEST...KCHS/KSAV Gateway Observations...TEST
National Weather Service Charleston SC
200 AM EST THU FEB 22 2018

NOTE: "fair" indicates few or no clouds below 12,000 feet with no
significant weather and/or obstructions to visibility.

SCZ050-WAZ558-NCZ071-TXZ119-213-PAZ071-DCZ001-FLZ074-172-MI076-
NYZ176-178-MAZ016-IL014-TNZ027-NJZ106-GAZ044-MD014-220800-

...Gateway Observations for Charleston International...

CITY           SKY/WX    TMP DP  RH WIND       PRES   REMARKS
Chas Airport   FAIR      67  65  93 S6        30.43S
Seattle        LGT SNOW  32  28  85 NE8       30.16S FOG     WCI  25
Charlotte      FAIR      65  64  97 S8        30.43R
Dallas DFW     DRIZZLE   35  33  92 N15       30.28S FOG     WCI  25
Dallas Love    CLOUDY    36  34  92 N9        30.30S FOG     WCI  29
Philladelphia  CLOUDY    56  38  50 N14       30.45R
Wash National  MOCLDY    67  60  78 N9        30.39R
Baltimore      MOCLDY    60  51  72 NE12      30.42R
Miami          MOCLDY    75  68  78 E14       30.31F
Detroit        CLOUDY    31  26  82 NE9       30.62F WCI  23
Newark         CLOUDY    56  38  50 N13       30.45R
Laguardia      CLOUDY    56  33  42 N14       30.44R
J F K          CLOUDY    56  34  43 N14       30.45R
Boston Logan   CLOUDY    51  20  29 NW15      30.48R
Ft. Lauderdale MOCLDY    75  70  84 E18       30.31S
Chicago O`Hare CLOUDY    30  22  72 NE13      30.56F WCI  20
Chicago Midway CLOUDY    32  25  75 NE15      30.56F WCI  22
Houston Bush   HVY RAIN  51  50  96 N8        30.20F
Houston Hobby  CLOUDY    53  53 100 N7        30.18S
Nashville      CLOUDY    51  49  92 CALM      30.26F
Atlanta        MOCLDY    66  63  90 S8        30.38R

$$

GAZ044-118-TXZ119-213-NCZ071-DCZ001-MDZ014-506-PAZ021-071-NJZ106-
NYZ176-178-MAZ106-OHZ011-021-055-MIZ076-KYZ091-ILZ014-INZ047-
MNZ060-ONZ431-220800-

...Gateway Observations for Savannah International...

CITY           SKY/WX    TMP DP  RH WIND       PRES   REMARKS
Savannah Arpt  FAIR      67  66  97 S8        30.42S
Atlanta        MOCLDY    66  63  90 S8        30.38R
Charlotte      FAIR      65  64  97 S8        30.43R
Dallas DFW     DRIZZLE   35  33  92 N15       30.28S FOG     WCI  25
Houston Bush   HVY RAIN  51  50  96 N8        30.20F
Wash National  MOCLDY    67  60  78 N9        30.39R
Wash Dulles    CLOUDY    64  57  78 N12       30.40S
Baltimore      MOCLDY    60  51  72 NE12      30.42R
Philadelphia   CLOUDY    56  38  50 N14       30.45R
Newark         CLOUDY    56  38  50 N13       30.45R
Laguardia      CLOUDY    56  33  42 N14       30.44R
J F K          CLOUDY    56  34  43 N14       30.45R
Boston         CLOUDY    51  20  29 NW15      30.48R
Pittsburg      LGT RAIN  42  37  82 N7        30.49F
Akron          LGT RAIN  34  30  85 N12       30.54S WCI  25
Cleveland      CLOUDY    33  29  85 NE12      30.61S WCI  24
Cincinnati     RAIN      42  42 100 NE17      30.41F FOG
Columbus       RAIN      37  36  95 NE12G17   30.46F WCI  30
Detroit        CLOUDY    31  26  82 NE9       30.62F WCI  23
Chicago O`Hare CLOUDY    30  22  72 NE13      30.56F WCI  20
Minneapolis    MOCLDY     9   5  84 NE5       30.62S WCI   1
Indianapolis   LGT RAIN  39  37  92 NE15      30.44F WCI  31
Toronto Canada CLOUDY    27  19  74 N15       30.67R WCI  15

$$




USA.gov is the U.S. government's official web portal to all federal, state and local government web resources and services.